DW0805 Ramloese DK current weather conditions

sailwx.info

Wind from 032 at 2 knots gusting 4

Air temperature -0.0° C
Dewpoint -1.6° C

Last reported at 2015-Apr-18 02:45 UTC.
Time now 2015-Apr-18 03:22 UTC

Location: N 56°01' E 012°05'.
View on Google Maps.

See reports from other nearby stations

  
Tides and Currents Weather Stations Pressure Air Temp Water Temp Dewpoint Dewpoint Depression Visibility Wind Speed Wind Dir Waves Ship Positions
date/time (UTC)wind fromknots sea level pressurealtimeterstation pressurevisibilityair tempwater tempwave heightnotes
2015-Apr-18 02:45 032 2 gusting 4 -0.0
2015-Apr-18 02:35 032 1 gusting 2 0.6
2015-Apr-18 02:25 032 1 gusting 2 0.6
2015-Apr-18 02:15 032 1 gusting 2 0.6
2015-Apr-18 02:05 032 1 gusting 2 0.6
2015-Apr-18 01:55 032 1 gusting 2 0.6
2015-Apr-18 01:45 032 1 gusting 1 1.1
2015-Apr-18 01:35 032 0 gusting 1 1.1
2015-Apr-18 01:25 032 0 gusting 1 1.7
2015-Apr-18 01:15 032 0 gusting 4 1.7
2015-Apr-18 01:05 032 1 gusting 2 1.7
2015-Apr-18 00:55 032 0 gusting 2 2.2
2015-Apr-18 00:45 032 2.2
2015-Apr-18 00:35 032 1 gusting 4 1.7
2015-Apr-18 00:25 032 1 gusting 2 1.7
2015-Apr-18 00:15 032 1 gusting 4 2.2
2015-Apr-18 00:05 032 0 gusting 2 2.8
2015-Apr-17 23:55 032 0 gusting 1 3.3
2015-Apr-17 23:45 032 3.3
2015-Apr-17 23:35 032 3.3
2015-Apr-17 23:25 032 0 gusting 4 3.9
2015-Apr-17 23:15 032 1 gusting 2 3.9
2015-Apr-17 23:05 033 2 gusting 6 3.9
2015-Apr-17 22:55 027 0 gusting 4 3.9
2015-Apr-17 22:45 027 3.9
2015-Apr-17 22:35 027 3.9
2015-Apr-17 22:25 027 1 gusting 4 3.9
2015-Apr-17 22:15 027 0 gusting 2 3.9
2015-Apr-17 22:05 027 1 gusting 5 3.9
2015-Apr-17 21:55 027 1 gusting 4 4.4
2015-Apr-17 21:45 026 0 gusting 2 4.4
2015-Apr-17 21:35 026 0 gusting 6 5.0
2015-Apr-17 21:25 026 2 gusting 6 5.0
2015-Apr-17 21:15 023 2 gusting 6 5.0
2015-Apr-17 21:05 023 2 gusting 5 5.0
2015-Apr-17 20:55 034 2 gusting 6 5.0
2015-Apr-17 20:45 029 1 gusting 6 4.4
2015-Apr-17 20:35 031 1 gusting 5 3.9
2015-Apr-17 20:25 020 0 gusting 2 3.9
2015-Apr-17 20:15 020 1 gusting 4 3.9
2015-Apr-17 20:05 020 1 gusting 4 3.9
2015-Apr-17 19:55 020 0 gusting 1 3.9
2015-Apr-17 19:45 020 4.4
2015-Apr-17 19:35 020 4.4
2015-Apr-17 19:25 020 5.0
2015-Apr-17 19:15 021 5.0
2015-Apr-17 19:05 021 0 gusting 4 5.6
2015-Apr-17 18:55 020 1 gusting 5 5.6
2015-Apr-17 18:45 019 1 gusting 5 6.1
2015-Apr-17 18:35 018 2 gusting 8 6.7
2015-Apr-17 18:25 034 5 gusting 10 6.7
2015-Apr-17 18:15 021 4 gusting 12 7.2
2015-Apr-17 18:05 020 7 gusting 13 7.2
2015-Apr-17 17:55 357 7 gusting 12 7.8
2015-Apr-17 17:45 018 8 gusting 14 7.8
2015-Apr-17 17:35 023 8 gusting 15 8.3
2015-Apr-17 17:25 030 8 gusting 13 8.3
2015-Apr-17 17:15 017 6 gusting 14 8.3
2015-Apr-17 17:05 015 7 gusting 15 8.3
2015-Apr-17 16:55 358 7 gusting 13 8.3
2015-Apr-17 16:45 011 6 gusting 10 7.8
2015-Apr-17 16:35 050 6 gusting 13 7.8
2015-Apr-17 16:25 031 6 gusting 15 8.3
2015-Apr-17 16:15 028 7 gusting 13 8.3
2015-Apr-17 16:05 002 8 gusting 17 8.9
2015-Apr-17 15:55 008 8 gusting 14 9.4
2015-Apr-17 15:45 005 10 gusting 15 8.9
2015-Apr-17 15:35 355 7 gusting 14 8.9
2015-Apr-17 15:25 001 10 gusting 15 8.9
2015-Apr-17 15:15 014 12 gusting 17 9.4
2015-Apr-17 15:05 011 11 gusting 19 10.0
2015-Apr-17 14:55 017 12 gusting 19 10.0
2015-Apr-17 14:45 005 11 gusting 19 10.0
2015-Apr-17 14:35 017 10 gusting 19 10.6
2015-Apr-17 14:25 028 8 gusting 17 10.6
2015-Apr-17 14:15 015 13 gusting 19 10.0
2015-Apr-17 14:05 004 10 gusting 18 10.0
2015-Apr-17 13:55 013 8 gusting 20 10.0
2015-Apr-17 13:45 355 13 gusting 22 10.0
2015-Apr-17 13:35 10.0
2015-Apr-17 13:25 008 8 gusting 21 10.0
2015-Apr-17 13:15 341 10 gusting 19 10.6
2015-Apr-17 13:05 006 12 gusting 18 10.0
2015-Apr-17 12:55 001 9 gusting 19 10.6
2015-Apr-17 12:45 345 12 gusting 20 10.0
2015-Apr-17 12:35 341 8 gusting 19 10.0
2015-Apr-17 12:25 003 8 gusting 20 10.6
2015-Apr-17 12:15 012 10 gusting 17 10.0
2015-Apr-17 12:05 012 11 gusting 21 10.0
2015-Apr-17 11:55 349 13 gusting 19 10.6
2015-Apr-17 11:45 009 8 gusting 15 10.6
2015-Apr-17 11:35 329 11 gusting 17 10.0
2015-Apr-17 11:25 012 10 gusting 18 10.6
2015-Apr-17 11:15 025 9 gusting 15 10.6
2015-Apr-17 11:05 002 13 gusting 15 10.0
2015-Apr-17 10:55 012 8 gusting 19 10.0
2015-Apr-17 10:45 359 13 gusting 19 10.0
2015-Apr-17 10:35 341 9 gusting 17 10.6
2015-Apr-17 10:25 006 7 gusting 15 10.0
2015-Apr-17 10:15 344 13 gusting 17 9.4
2015-Apr-17 10:05 353 13 gusting 17 9.4
2015-Apr-17 09:55 346 10 gusting 15 10.6
2015-Apr-17 09:45 003 10 gusting 15 10.0
2015-Apr-17 09:35 010 9 gusting 15 10.6
2015-Apr-17 09:25 002 6 gusting 14 10.6
2015-Apr-17 09:15 016 10 gusting 17 10.6
2015-Apr-17 09:05 357 11 gusting 18 9.4
2015-Apr-17 08:55 357 12 gusting 15 10.0
2015-Apr-17 08:45 006 13 gusting 19 10.0
2015-Apr-17 08:35 001 10 gusting 15 10.6
2015-Apr-17 08:25 005 10 gusting 13 11.1
2015-Apr-17 08:15 013 11 gusting 14 10.6
2015-Apr-17 08:05 006 10 gusting 15 10.0
2015-Apr-17 07:55 007 7 gusting 14 10.6
2015-Apr-17 07:45 10.6
2015-Apr-17 07:35 10.0
2015-Apr-17 07:25 009 7 gusting 17 10.0
2015-Apr-17 07:15 007 9 gusting 13 10.0
2015-Apr-17 07:05 008 6 gusting 12 10.6
2015-Apr-17 06:55 008 6 gusting 17 9.4
2015-Apr-17 06:45 355 8 gusting 13 9.4
2015-Apr-17 06:35 008 6 gusting 13 9.4
2015-Apr-17 06:25 350 9 gusting 15 8.3
2015-Apr-17 06:15 027 7 gusting 15 8.3
2015-Apr-17 06:05 005 4 gusting 13 8.3
2015-Apr-17 05:55 005 8 gusting 13 7.2
2015-Apr-17 05:45 006 6 gusting 11 7.2
2015-Apr-17 05:35 356 7 gusting 12 6.7
2015-Apr-17 05:25 359 5 gusting 10 6.1
2015-Apr-17 05:15 357 6 gusting 11 6.1
2015-Apr-17 05:05 347 5 gusting 11 5.6
2015-Apr-17 04:55 348 6 gusting 8 5.6
2015-Apr-17 04:45 338 5 gusting 11 5.0
2015-Apr-17 04:35 345 5 gusting 11 5.0
2015-Apr-17 04:25 344 7 gusting 11 5.0
2015-Apr-17 04:15 335 6 gusting 10 5.0
2015-Apr-17 04:05 342 6 gusting 11 4.4
2015-Apr-17 03:55 329 6 gusting 10 5.0
2015-Apr-17 03:45 340 5 gusting 12 5.0
2015-Apr-17 03:35 347 7 gusting 11 4.4
2015-Apr-17 03:25 325 9 gusting 12 4.4
2015-Apr-17 03:15 340 5 gusting 10 4.4
2015-Apr-17 03:05 318 5 gusting 8 4.4
2015-Apr-17 02:55 315 5 gusting 8 4.4
2015-Apr-17 02:45 338 5 gusting 10 4.4
2015-Apr-17 02:35 330 6 gusting 12 4.4
2015-Apr-17 02:25 321 5 gusting 11 4.4
2015-Apr-17 02:15 330 6 gusting 11 4.4
2015-Apr-17 02:05 321 6 gusting 11 4.4
2015-Apr-17 01:55 326 6 gusting 13 4.4
2015-Apr-17 01:45 339 6 gusting 12 4.4
2015-Apr-17 01:35 340 9 gusting 15 4.4
2015-Apr-17 01:25 326 8 gusting 13 4.4
2015-Apr-17 01:15 315 6 gusting 12 4.4
2015-Apr-17 01:05 333 6 gusting 13 4.4
2015-Apr-17 00:55 326 8 gusting 12 4.4
2015-Apr-17 00:45 314 7 gusting 13 5.0
2015-Apr-17 00:35 311 6 gusting 14 5.0
2015-Apr-17 00:25 312 10 gusting 13 5.0
2015-Apr-17 00:15 324 11 gusting 14 5.0
2015-Apr-17 00:05 320 8 gusting 14 5.0
2015-Apr-16 23:55 295 10 gusting 15 5.0
2015-Apr-16 23:45 320 8 gusting 14 5.0
2015-Apr-16 23:35 310 9 gusting 15 5.0
2015-Apr-16 23:25 312 11 gusting 14 5.0
2015-Apr-16 23:15 318 10 gusting 14 5.0
2015-Apr-16 23:05 322 10 gusting 15 5.0
2015-Apr-16 22:55 303 9 gusting 15 5.0
2015-Apr-16 22:45 309 12 gusting 15 5.0
2015-Apr-16 22:35 311 10 gusting 14 5.0
2015-Apr-16 22:25 308 9 gusting 13 5.0
2015-Apr-16 22:15 307 11 gusting 15 5.6
2015-Apr-16 22:05 295 12 gusting 17 5.6
2015-Apr-16 21:55 315 8 gusting 15 5.6
2015-Apr-16 21:45 309 9 gusting 14 5.6
2015-Apr-16 21:35 318 10 gusting 15 5.6
2015-Apr-16 21:25 296 9 gusting 15 5.6
2015-Apr-16 21:15 316 11 gusting 17 5.6
2015-Apr-16 21:05 301 13 gusting 17 5.6
2015-Apr-16 20:55 307 10 gusting 15 5.6
2015-Apr-16 20:45 303 10 gusting 18 5.6
2015-Apr-16 20:35 310 11 gusting 15 5.6
2015-Apr-16 20:25 312 10 gusting 17 6.1
2015-Apr-16 20:15 303 8 gusting 15 6.1
2015-Apr-16 20:05 297 11 gusting 15 6.1
2015-Apr-16 19:55 302 8 gusting 14 6.1
2015-Apr-16 19:45 316 10 gusting 18 6.1
2015-Apr-16 19:35 307 11 gusting 18 6.1
2015-Apr-16 19:25 318 11 gusting 18 6.7
2015-Apr-16 19:15 320 12 gusting 17 6.7
2015-Apr-16 19:05 305 10 gusting 15 6.7
2015-Apr-16 18:55 312 11 gusting 18 6.7
2015-Apr-16 18:45 319 11 gusting 19 6.7
2015-Apr-16 18:35 313 10 gusting 14 6.7
2015-Apr-16 18:25 308 7 gusting 11 6.7
2015-Apr-16 18:15 313 6 gusting 10 6.7
2015-Apr-16 18:05 305 6 gusting 14 7.2
2015-Apr-16 17:55 327 5 gusting 10 7.2
2015-Apr-16 17:45 324 6 gusting 10 7.2
2015-Apr-16 17:35 300 6 gusting 11 7.2
2015-Apr-16 17:25 312 6 gusting 13 7.8
2015-Apr-16 17:15 313 6 gusting 11 7.8
2015-Apr-16 17:05 306 6 gusting 12 7.8
2015-Apr-16 16:55 324 6 gusting 13 7.8
2015-Apr-16 16:45 328 8 gusting 14 7.8
2015-Apr-16 16:35 332 8 gusting 14 8.3
2015-Apr-16 16:25 313 9 gusting 13 8.3
2015-Apr-16 16:15 339 8 gusting 13 8.3
2015-Apr-16 16:05 323 7 gusting 12 8.3
2015-Apr-16 15:55 322 7 gusting 13 8.3
2015-Apr-16 15:45 323 8 gusting 13 8.9
2015-Apr-16 15:35 342 8 gusting 15 9.4
2015-Apr-16 15:25 324 8 gusting 15 9.4
2015-Apr-16 15:15 323 6 gusting 14 8.9
2015-Apr-16 15:05 315 8 gusting 12 8.9
2015-Apr-16 14:55 306 7 gusting 15 9.4
2015-Apr-16 14:45 307 11 gusting 15 9.4
2015-Apr-16 14:35 335 7 gusting 18 10.0
2015-Apr-16 14:25 302 11 gusting 15 10.0
2015-Apr-16 14:15 298 8 gusting 18 10.6
2015-Apr-16 14:05 313 11 gusting 15 10.0
2015-Apr-16 13:55 303 10 gusting 19 10.6
2015-Apr-16 13:45 296 13 gusting 19 10.6
2015-Apr-16 13:35 278 9 gusting 17 10.0
2015-Apr-16 13:25 318 11 gusting 17 9.4
2015-Apr-16 13:15 285 13 gusting 17 9.4
2015-Apr-16 13:05 296 12 gusting 17 9.4
2015-Apr-16 12:55 322 9 gusting 17 10.0
2015-Apr-16 12:45 316 10 gusting 14 10.0
2015-Apr-16 12:35 302 11 gusting 13 10.0
2015-Apr-16 12:25 329 11 gusting 15 10.6
2015-Apr-16 12:15 301 12 gusting 17 10.6
2015-Apr-16 12:05 291 10 gusting 17 10.6
2015-Apr-16 11:55 316 13 gusting 19 10.6
2015-Apr-16 11:45 298 13 gusting 20 10.0
2015-Apr-16 11:35 285 12 gusting 17 10.0
2015-Apr-16 11:25 283 12 gusting 19 9.4
2015-Apr-16 11:15 299 10 gusting 18 9.4
2015-Apr-16 11:05 311 9 gusting 15 9.4
2015-Apr-16 10:55 313 8 gusting 17 9.4
2015-Apr-16 10:45 305 10 gusting 15 9.4
2015-Apr-16 10:35 302 13 gusting 17 8.9
2015-Apr-16 10:25 327 9 gusting 17 9.4
2015-Apr-16 10:15 290 10 gusting 18 8.9
2015-Apr-16 10:05 292 11 gusting 17 8.3
2015-Apr-16 09:55 296 10 gusting 15 8.3
2015-Apr-16 09:45 300 8 gusting 14 8.3
2015-Apr-16 09:35 302 9 gusting 17 7.8
2015-Apr-16 09:25 274 7 gusting 14 8.3
2015-Apr-16 09:15 305 11 gusting 14 7.8
2015-Apr-16 09:05 290 10 gusting 19 7.8
2015-Apr-16 08:55 265 9 gusting 15 8.3
2015-Apr-16 08:45 269 12 gusting 17 8.3
2015-Apr-16 08:35 304 10 gusting 17 8.9
2015-Apr-16 08:25 302 11 gusting 19 8.9
2015-Apr-16 08:15 307 10 gusting 15 9.4
2015-Apr-16 08:05 308 15 gusting 20 7.8
2015-Apr-16 07:55 268 11 gusting 19 8.3
2015-Apr-16 07:45 279 11 gusting 18 8.9
2015-Apr-16 07:35 282 14 gusting 19 8.3
2015-Apr-16 07:25 297 8 gusting 15 8.9
2015-Apr-16 07:15 306 13 gusting 19 8.3
2015-Apr-16 07:05 304 13 gusting 19 7.8
2015-Apr-16 06:55 274 12 gusting 18 7.8
2015-Apr-16 06:45 316 13 gusting 20 7.2
2015-Apr-16 06:35 318 13 gusting 19 7.2
2015-Apr-16 06:25 302 12 gusting 19 6.7
2015-Apr-16 06:15 307 11 gusting 20 6.7
2015-Apr-16 06:05 335 14 gusting 20 6.1
2015-Apr-16 05:55 295 11 gusting 15 6.1
2015-Apr-16 05:45 330 12 gusting 19 6.1
2015-Apr-16 05:35 301 11 gusting 18 6.1
2015-Apr-16 05:25 292 11 gusting 18 6.1
2015-Apr-16 05:15 318 13 gusting 19 5.6
2015-Apr-16 05:05 306 9 gusting 17 5.6
2015-Apr-16 04:55 306 9 gusting 15 5.6
2015-Apr-16 04:45 313 11 gusting 17 5.6
2015-Apr-16 04:35 331 13 gusting 17 5.6
2015-Apr-16 04:25 335 9 gusting 15 5.6
2015-Apr-16 04:15 280 11 gusting 19 5.6
2015-Apr-16 04:05 298 11 gusting 15 5.6
2015-Apr-16 03:55 302 14 gusting 22 5.0
2015-Apr-16 03:45 313 11 gusting 15 5.0
2015-Apr-16 03:35 308 12 gusting 19 5.0
2015-Apr-16 03:25 315 11 gusting 17 5.0
2015-Apr-16 03:15 301 12 gusting 18 5.0
2015-Apr-16 03:05 303 12 gusting 19 5.0